Weather History for Ely, MN

Change the Weather History Date:

Sunday, February 3, 2013

  Actual Average Record
Temperature  
Mean Temperature -10 °F -  
Max Temperature 3 °F 22 °F 42 °F (2005)
Min Temperature -23 °F 1 °F -23 °F (2013)
Degree Days  
Heating Degree Days 75    
Moisture  
Dew Point -11 °F    
Average Humidity 73    
Maximum Humidity 85    
Minimum Humidity 51    
Precipitation  
Precipitation 0.00 in - - ()
Sea Level Pressure  
Sea Level Pressure 29.88 in    
Wind  
Wind Speed 7 mph (WNW)    
Max Wind Speed 14 mph    
Max Gust Speed 20 mph    
Visibility 9 miles    
Events Snow    
Averages and records for this station are not official NWS values.
T = Trace of Precipitation, MM = Missing Value Source: NWS Daily Summary

Daily Weather History Graph

Daily Weather History Graph

Search for Another Location

Airport:

Trip Planner

Search our weather history database for the weather conditions in past years. The results will help you decide how hot, cold, wet, or windy it might be!

Date:

Astronomy

Feb. 03, 2013 Rise Set
Actual Time 7:31 AM CST 5:11 PM CST
Civil Twilight 6:58 AM CST 5:44 PM CST
Nautical Twilight 6:21 AM CST 6:21 PM CST
Astronomical Twilight 5:45 AM CST 6:57 PM CST
Moon 1:00 AM CST (2/3) 10:46 AM CST (2/3)
Length of Visible Light 10h 46m
Length of Day
9h 40m
Waning Gibbous, 48% of the Moon is Illuminated
Feb 3
Waning Gibbous
Feb 10
New
Feb 17
First Quarter
Feb 25
Full
Mar 4
Last Quarter

Hourly Weather History & Observations

Time (CST) Temp. Windchill Dew Point Humidity Pressure Visibility Wind Dir Wind Speed Gust Speed Precip Events Conditions
12:12 AM 1.4 °F -8.3 °F -2.2 °F 85% 29.82 in 10.0 mi West 4.6 mph - N/A Snow Light Snow
12:33 AM 1.4 °F -12.5 °F -2.2 °F 85% 29.82 in 10.0 mi West 8.1 mph - N/A Snow Light Snow
12:53 AM 1.4 °F -12.5 °F -2.2 °F 85% 29.81 in 10.0 mi WNW 8.1 mph - N/A   Overcast
1:12 AM 1.4 °F -13.5 °F -2.2 °F 85% 29.81 in 10.0 mi WNW 9.2 mph - N/A Snow Light Snow
1:33 AM 1.4 °F -15.3 °F -2.2 °F 85% 29.80 in 10.0 mi WNW 11.5 mph 16.1 mph N/A   Overcast
1:53 AM 1.4 °F -9.9 °F -2.2 °F 85% 29.81 in 7.0 mi WNW 5.8 mph - N/A Snow Light Snow
2:12 AM 1.4 °F -11.3 °F -2.2 °F 85% 29.81 in 2.5 mi WNW 6.9 mph - N/A Snow Light Snow
2:33 AM 1.4 °F -12.5 °F -2.2 °F 85% 29.82 in 7.0 mi WNW 8.1 mph - N/A Snow Light Snow
2:53 AM 1.4 °F -11.3 °F -2.2 °F 85% 29.82 in 4.0 mi WNW 6.9 mph - N/A Snow Light Snow
3:12 AM 1.4 °F -14.5 °F -4.0 °F 78% 29.82 in 4.0 mi WNW 10.4 mph 17.3 mph N/A Snow Light Snow
3:33 AM 1.4 °F -13.5 °F -4.0 °F 78% 29.82 in 10.0 mi WNW 9.2 mph - N/A   Overcast
3:53 AM -0.4 °F -16.7 °F -5.8 °F 78% 29.83 in 7.0 mi NW 10.4 mph 19.6 mph N/A   Overcast
4:12 AM -0.4 °F -19.2 °F -5.8 °F 78% 29.83 in 10.0 mi WNW 13.8 mph 18.4 mph N/A   Overcast
4:33 AM -0.4 °F -17.6 °F -7.6 °F 72% 29.84 in 7.0 mi WNW 11.5 mph 17.3 mph N/A   Overcast
4:53 AM -0.4 °F -16.7 °F -7.6 °F 72% 29.84 in 7.0 mi WNW 10.4 mph 19.6 mph N/A   Overcast
5:12 AM -2.2 °F -16.8 °F -7.6 °F 78% 29.84 in 10.0 mi WNW 8.1 mph - N/A   Mostly Cloudy
5:33 AM -2.2 °F -15.6 °F -7.6 °F 78% 29.85 in 10.0 mi WNW 6.9 mph 18.4 mph N/A   Mostly Cloudy
5:53 AM -2.2 °F -18.0 °F -7.6 °F 78% 29.86 in 7.0 mi WNW 9.2 mph 17.3 mph N/A   Mostly Cloudy
6:13 AM -2.2 °F -18.0 °F -9.4 °F 71% 29.87 in 10.0 mi NW 9.2 mph - N/A   Mostly Cloudy
6:32 AM -2.2 °F -16.8 °F -9.4 °F 71% 29.87 in 5.0 mi NW 8.1 mph - N/A   Haze
6:53 AM -4.0 °F -17.8 °F -9.4 °F 78% 29.88 in 7.0 mi NW 6.9 mph 18.4 mph N/A   Mostly Cloudy
7:13 AM -4.0 °F -19.0 °F -9.4 °F 78% 29.88 in 10.0 mi NW 8.1 mph - N/A   Mostly Cloudy
7:33 AM -5.8 °F -18.4 °F -9.4 °F 84% 29.88 in 7.0 mi WNW 5.8 mph - N/A   Mostly Cloudy
7:53 AM -5.8 °F -16.7 °F -11.2 °F 77% 29.89 in 10.0 mi WNW 4.6 mph - N/A   Scattered Clouds
8:12 AM -5.8 °F -21.2 °F -9.4 °F 84% 29.89 in 10.0 mi WNW 8.1 mph - N/A   Mostly Cloudy
8:33 AM -5.8 °F -23.4 °F -11.2 °F 77% 29.90 in 7.0 mi WNW 10.4 mph - N/A   Scattered Clouds
8:53 AM -4.0 °F -17.8 °F -9.4 °F 78% 29.90 in 5.0 mi WNW 6.9 mph - N/A   Haze
9:12 AM -4.0 °F -23.0 °F -9.4 °F 78% 29.90 in 4.0 mi WNW 12.7 mph 17.3 mph N/A   Haze
9:33 AM -4.0 °F -21.2 °F -11.2 °F 71% 29.91 in 5.0 mi NW 10.4 mph - N/A   Haze
9:53 AM -2.2 °F -20.7 °F -11.2 °F 66% 29.91 in 7.0 mi NW 12.7 mph 17.3 mph N/A   Scattered Clouds
10:12 AM -2.2 °F -19.9 °F -11.2 °F 66% 29.91 in 7.0 mi NW 11.5 mph 19.6 mph N/A   Mostly Cloudy
10:33 AM -2.2 °F -20.7 °F -11.2 °F 66% 29.92 in 5.0 mi West 12.7 mph 18.4 mph N/A   Haze
10:53 AM -2.2 °F -20.7 °F -11.2 °F 66% 29.92 in 5.0 mi NW 12.7 mph - N/A   Haze
11:12 AM -2.2 °F -18.0 °F -11.2 °F 66% 29.91 in 7.0 mi NNW 9.2 mph - N/A   Scattered Clouds
11:33 AM -0.4 °F -12.0 °F -11.2 °F 60% 29.91 in 10.0 mi WNW 5.8 mph - N/A   Scattered Clouds
11:53 AM -0.4 °F -14.7 °F -11.2 °F 60% 29.90 in 10.0 mi West 8.1 mph - N/A   Scattered Clouds
12:13 PM 1.4 °F -12.5 °F -11.2 °F 56% 29.90 in 10.0 mi NW 8.1 mph - N/A   Scattered Clouds
12:33 PM 1.4 °F -9.9 °F -11.2 °F 56% 29.90 in 10.0 mi NW 5.8 mph 16.1 mph N/A   Scattered Clouds
12:52 PM 1.4 °F -12.5 °F -11.2 °F 56% 29.90 in 10.0 mi West 8.1 mph - N/A   Clear
1:13 PM 1.4 °F -15.3 °F -11.2 °F 56% 29.90 in 10.0 mi NW 11.5 mph 19.6 mph N/A   Scattered Clouds
1:33 PM 1.4 °F -15.3 °F -11.2 °F 56% 29.89 in 10.0 mi WNW 11.5 mph - N/A   Clear
1:52 PM 3.2 °F -10.3 °F -11.2 °F 51% 29.89 in 10.0 mi WNW 8.1 mph - N/A   Clear
2:13 PM 3.2 °F -11.3 °F -9.4 °F 56% 29.89 in 10.0 mi WNW 9.2 mph - N/A   Clear
2:33 PM 3.2 °F -12.2 °F -11.2 °F 51% 29.89 in 10.0 mi WNW 10.4 mph - N/A   Clear
2:53 PM 3.2 °F -11.3 °F -9.4 °F 56% 29.89 in 10.0 mi WNW 9.2 mph - N/A   Clear
3:12 PM 3.2 °F -11.3 °F -9.4 °F 56% 29.89 in 10.0 mi WNW 9.2 mph - N/A   Clear
3:33 PM 3.2 °F -7.8 °F -9.4 °F 56% 29.89 in 10.0 mi West 5.8 mph - N/A   Clear
3:52 PM 3.2 °F -7.8 °F -9.4 °F 56% 29.89 in 10.0 mi WNW 5.8 mph - N/A   Clear
4:13 PM 1.4 °F -11.3 °F -9.4 °F 61% 29.89 in 10.0 mi West 6.9 mph - N/A   Clear
4:33 PM 1.4 °F -9.9 °F -9.4 °F 61% 29.90 in 10.0 mi West 5.8 mph - N/A   Clear
4:52 PM 1.4 °F -9.9 °F -9.4 °F 61% 29.89 in 10.0 mi West 5.8 mph - N/A   Clear
5:13 PM -0.4 °F -12.0 °F -9.4 °F 66% 29.90 in 10.0 mi West 5.8 mph - N/A   Clear
5:33 PM -2.2 °F -14.2 °F -9.4 °F 71% 29.90 in 10.0 mi West 5.8 mph - N/A   Clear
5:52 PM -4.0 °F -12.4 °F -11.2 °F 71% 29.90 in 10.0 mi West 3.5 mph - N/A   Clear
6:13 PM -7.6 °F -16.5 °F -11.2 °F 84% 29.90 in 10.0 mi West 3.5 mph - N/A   Clear
6:33 PM -7.6 °F - -11.2 °F 84% 29.90 in 10.0 mi Calm Calm - N/A   Clear
6:52 PM -7.6 °F - -13.0 °F 77% 29.90 in 10.0 mi Calm Calm - N/A   Clear
7:13 PM -9.4 °F - -14.8 °F 77% 29.90 in 10.0 mi Calm Calm - N/A   Clear
7:27 PM -11.2 °F - -14.8 °F 84% 29.90 in 10.0 mi Calm Calm - N/A   Clear
7:53 PM -13.0 °F - -16.6 °F 84% 29.91 in 10.0 mi Calm Calm - N/A   Clear
8:13 PM -14.8 °F - -18.4 °F 84% 29.91 in 10.0 mi Calm Calm - N/A   Clear
8:32 PM -14.8 °F - -18.4 °F 84% 29.91 in 10.0 mi Calm Calm - N/A   Clear
8:53 PM -16.6 °F - -20.2 °F 84% 29.91 in 10.0 mi Calm Calm - N/A   Clear
9:13 PM -18.4 °F - -22.0 °F 84% 29.92 in 10.0 mi Calm Calm - N/A   Clear
9:32 PM -18.4 °F - -23.8 °F 76% 29.92 in 10.0 mi Calm Calm - N/A   Clear
9:53 PM -20.2 °F - -25.6 °F 76% 29.92 in 10.0 mi Calm Calm - N/A   Clear
10:13 PM -20.2 °F - -25.6 °F 76% 29.92 in 10.0 mi Calm Calm - N/A   Clear
10:32 PM -20.2 °F - -25.6 °F 76% 29.93 in 10.0 mi Calm Calm - N/A   Clear
10:53 PM -22.0 °F - -27.4 °F 76% 29.93 in 10.0 mi Calm Calm - N/A   Clear
11:13 PM -22.0 °F - -27.4 °F 76% 29.93 in 10.0 mi Calm Calm - N/A   Clear
11:32 PM -23.8 °F - -29.2 °F 76% 29.93 in 10.0 mi Calm Calm - N/A   Clear
11:53 PM -23.8 °F - -29.2 °F 76% 29.94 in 10.0 mi Calm Calm - N/A   Clear